Wetbulb
76.39 75.88 74.63 70.56 60.71 58.31 49.50 56.24 60.33 60.08 59.77 62.46 65.49 62.76 61.44 63.59 59.83 53.71 70.06 73.31 75.08 75.35 76.78 77.98 79.05 78.50 78.15 77.43 77.18 77.14 77.08 77.00 76.89 76.81 76.85 76.77 76.97 76.98 76.96 76.85 76.58 76.23 76.82 76.57 75.92 76.15 75.95 75.76 75.27
75.71 74.63 72.15 67.64 56.23 47.33 50.31 59.11 58.29 59.95 61.29 63.41 64.74 64.31 63.81 62.52 68.41 68.93 70.37 74.47 75.31 75.70 76.00 77.26 79.09 78.88 78.19 77.74 77.33 77.25 77.12 77.01 77.10 76.79 76.24 76.48 75.63 75.79 76.74 76.65 76.53 76.74 76.67 76.51 76.10 76.41 76.28 75.76 74.94
75.39 73.51 66.49 62.92 55.58 47.71 52.20 60.01 61.59 64.09 65.76 65.51 64.45 66.75 65.78 64.45 68.96 69.59 72.84 74.82 75.61 75.37 76.11 76.94 79.12 78.85 78.08 77.85 77.70 77.43 77.33 77.20 76.96 77.06 76.77 76.37 76.43 76.12 75.00 75.60 76.00 76.04 76.34 76.63 76.18 76.34 75.52 75.65 75.26
72.67 69.87 67.88 55.35 50.44 53.21 58.63 61.57 64.34 64.57 66.12 66.63 65.87 62.92 67.25 70.46 69.51 71.98 74.19 75.00 74.92 75.39 75.65 78.45 78.98 78.00 77.78 77.79 77.69 77.60 77.26 76.61 76.93 76.84 76.82 76.47 76.34 76.45 76.09 75.38 74.73 75.05 75.98 76.28 76.02 75.45 75.08 76.15 75.36
66.71 64.26 53.57 51.69 51.95 56.26 61.85 64.49 64.96 63.39 64.28 64.82 65.83 63.33 64.95 69.96 73.05 73.23 73.33 74.21 74.11 74.95 76.20 76.86 78.84 78.80 78.54 77.71 77.60 77.39 77.24 77.00 76.80 76.68 76.57 76.50 76.50 76.39 76.02 76.34 76.04 75.52 75.16 75.60 75.73 75.28 75.74 75.64 75.73
60.63 59.08 50.83 49.37 53.59 57.11 61.33 64.52 65.24 64.48 65.34 65.13 64.49 63.61 65.04 70.94 71.35 72.30 73.53 73.71 74.63 75.26 75.81 76.46 78.33 78.25 77.92 77.72 77.55 77.31 77.01 76.93 77.08 76.98 76.73 76.65 76.46 75.66 75.77 76.14 76.22 76.29 75.77 75.45 75.46 75.87 75.82 75.95 75.84
57.98 54.56 53.22 51.38 52.68 56.05 59.40 64.54 63.49 63.71 64.07 64.37 66.63 62.56 65.59 68.59 71.07 72.49 73.96 74.46 74.91 75.84 75.63 75.27 75.93 76.60 77.90 77.66 77.50 77.29 77.09 77.17 77.20 77.04 76.71 76.57 76.24 76.17 76.04 76.19 76.05 76.18 76.41 76.00 75.50 75.27 75.95 75.98 75.94
60.47 56.76 52.88 52.70 52.46 52.93 59.35 60.57 65.42 64.59 64.62 68.75 68.33 61.35 62.25 68.00 71.95 72.95 73.16 73.48 74.61 74.71 74.72 74.31 74.43 74.68 74.77 75.01 77.48 77.33 77.26 77.14 77.20 76.93 76.88 76.50 76.41 76.03 75.95 76.56 76.28 75.62 75.40 76.33 75.93 75.40 75.27 75.99 75.68
62.76 52.36 51.04 53.96 54.02 56.55 60.28 61.26 66.48 68.03 65.74 67.09 67.99 66.56 68.75 71.35 71.82 70.69 71.16 71.95 72.11 73.43 73.65 73.77 73.49 73.15 73.62 74.21 75.58 77.42 77.33 77.17 77.18 76.75 77.17 76.26 73.72 73.86 74.79 75.94 76.08 75.67 75.38 75.27 75.44 75.96 75.91 75.85 75.92
57.04 49.56 53.95 58.13 58.87 58.50 62.25 61.83 62.58 64.53 64.20 65.48 65.82 69.49 70.82 71.21 70.11 69.08 69.10 68.97 70.01 71.33 72.34 73.09 73.25 73.00 73.13 75.28 74.36 74.71 74.39 74.08 73.59 74.13 73.67 73.72 73.34 72.74 74.35 75.53 76.36 75.77 75.90 75.65 75.27 75.48 75.61 75.48 72.70
55.80 52.37 56.90 60.10 61.69 61.46 58.19 60.48 63.00 64.00 62.39 64.63 63.97 67.63 69.90 70.17 69.32 69.11 69.46 69.23 69.36 70.91 71.92 72.80 73.33 72.97 72.91 73.67 73.96 73.92 73.87 73.43 73.56 73.76 72.98 72.99 72.88 72.44 73.19 72.60 73.24 72.94 75.61 72.86 74.03 72.29 71.35 71.67 72.07
54.69 57.82 59.18 59.56 63.73 60.96 59.22 60.93 60.74 64.12 64.07 67.90 67.58 68.96 69.49 69.01 68.90 69.28 69.45 69.95 70.38 70.89 71.65 72.49 73.02 72.77 72.94 72.96 73.69 73.44 73.49 73.28 72.92 73.66 73.58 72.17 71.54 70.72 70.16 70.93 71.73 71.69 72.03 70.18 69.34 68.35 67.57 67.58 68.86
57.07 58.08 59.37 60.97 61.74 61.12 62.28 60.01 60.28 61.50 67.15 68.77 68.53 68.29 68.10 68.28 68.72 69.65 70.62 70.79 70.52 70.83 72.03 72.46 72.99 72.92 73.13 72.14 71.40 71.43 72.31 72.27 71.56 71.52 71.88 71.97 70.39 69.23 69.82 70.21 69.98 70.41 70.84 69.73 67.61 66.92 67.85 68.25 68.87
56.56 57.29 56.68 59.83 60.90 61.60 59.67 59.21 60.79 63.88 67.21 67.28 67.52 67.00 67.50 67.55 68.55 68.15 68.09 69.25 69.78 71.13 71.75 72.59 72.92 73.01 72.28 70.49 69.18 67.68 69.28 69.52 70.18 70.55 70.36 70.53 69.80 70.00 69.44 69.17 69.19 69.33 69.71 69.53 68.72 68.06 67.61 66.85 68.49
54.54 50.90 57.88 58.67 59.56 59.32 60.45 57.20 57.75 64.37 66.90 66.04 66.53 67.05 67.48 67.54 68.62 67.70 68.20 68.20 70.34 71.25 71.90 71.94 72.86 73.20 71.48 70.41 69.86 69.21 70.14 71.54 70.39 71.25 70.92 70.51 69.41 70.83 69.62 68.20 67.99 68.17 69.28 68.26 67.25 67.28 67.25 67.30 68.35
52.66 51.38 48.35 56.29 59.10 59.38 58.77 52.14 58.75 64.14 64.87 64.59 66.07 66.94 67.18 67.35 68.13 68.65 69.07 68.77 70.76 71.39 71.26 72.07 73.67 72.98 71.44 70.33 70.59 69.51 69.39 69.67 70.14 70.73 70.39 70.26 70.76 71.68 69.55 69.39 68.42 68.60 68.94 67.14 66.84 65.81 66.33 66.89 66.48
49.24 45.58 47.80 52.30 59.19 58.36 55.86 51.21 57.21 61.12 64.31 63.98 65.30 66.21 66.90 67.41 67.77 68.62 69.18 69.37 70.20 70.99 71.33 71.19 72.61 72.28 71.62 71.28 69.66 69.26 68.56 68.29 69.08 69.12 69.64 70.94 71.26 71.48 70.49 69.61 68.26 68.67 68.60 68.24 67.79 67.59 67.61 66.82 67.59
43.78 45.95 47.53 49.77 55.84 57.61 55.55 53.89 57.04 58.77 62.75 62.45 62.58 65.11 66.09 66.58 67.30 69.02 69.20 69.82 70.34 70.90 71.29 71.69 72.62 71.66 70.81 69.75 68.87 67.20 67.68 68.02 67.99 67.50 67.77 68.23 68.01 70.47 70.96 70.14 69.26 68.92 68.02 67.25 67.25 67.04 67.59 68.17 67.43
48.44 48.68 48.52 51.07 55.36 53.39 52.70 52.95 54.72 59.13 59.65 60.63 60.18 63.18 64.72 65.87 68.32 68.78 69.66 70.32 70.56 71.62 71.32 71.81 71.23 70.36 70.34 69.10 68.40 66.87 63.95 65.71 66.73 67.61 68.87 69.22 69.84 70.00 70.09 68.90 69.28 69.26 69.01 68.11 68.47 68.13 67.18 66.96 67.79
49.05 48.24 48.53 51.92 54.70 52.32 52.87 52.45 53.91 57.24 58.33 60.70 60.86 62.31 64.19 62.79 65.23 66.99 68.88 70.05 71.07 71.58 71.82 71.67 71.15 70.63 70.27 70.41 69.89 68.42 65.01 65.01 64.71 65.47 66.49 69.04 69.26 70.36 70.24 68.94 69.37 69.98 68.78 68.63 69.39 68.81 66.14 65.61 66.93
45.91 47.11 48.87 50.01 52.59 52.60 52.25 49.52 50.30 55.41 57.68 59.59 60.79 62.51 63.24 61.34 62.65 65.90 68.06 69.55 71.31 71.77 71.79 71.54 70.86 70.27 69.84 70.80 68.51 67.34 66.38 65.50 65.18 66.11 67.48 69.48 69.71 69.50 70.72 70.58 69.08 68.65 68.15 67.45 67.25 67.23 66.62 64.99 65.25
39.07 50.44 51.92 51.38 48.94 44.09 50.35 42.44 46.42 50.32 52.68 56.66 58.68 61.30 63.17 62.37 63.88 66.04 67.72 68.81 70.91 72.25 72.84 72.23 72.09 70.92 70.34 70.15 67.55 66.43 64.44 62.84 64.95 66.76 68.56 69.78 71.06 70.95 70.69 69.99 68.91 68.04 67.72 66.69 67.27 68.65 66.96 65.30 64.04
45.51 48.45 50.44 50.65 46.11 44.41 45.40 42.04 45.24 49.62 50.70 53.68 56.89 58.83 62.52 61.84 64.75 66.13 67.48 69.66 71.78 73.09 72.92 72.96 72.73 70.88 70.29 69.03 67.88 65.69 63.70 65.24 67.59 68.22 68.29 68.44 68.53 69.74 69.85 68.78 67.46 66.72 66.40 66.31 66.87 66.96 66.44 66.44 65.24
49.25 47.24 44.44 42.90 40.44 37.45 42.48 41.49 42.83 46.77 51.16 53.86 56.17 58.86 61.57 61.44 61.86 66.52 68.12 70.56 72.23 73.90 73.52 71.72 70.43 70.36 70.16 69.34 68.33 66.87 65.36 66.87 67.23 67.09 67.02 67.41 67.65 67.56 68.26 67.79 66.29 65.64 65.84 66.29 66.80 67.18 66.58 66.30 66.19
44.48 39.15 35.05 34.97 34.72 35.95 40.77 41.75 44.59 50.15 52.70 55.05 56.13 57.29 60.94 62.64 61.95 66.20 68.55 70.58 73.05 73.29 72.55 71.92 72.00 69.78 69.39 68.49 69.32 67.86 67.50 67.61 66.15 66.98 67.11 66.88 66.54 66.07 65.81 65.98 65.17 65.01 66.83 66.60 66.74 65.62 65.15 65.41 65.38
41.40 39.28 36.01 32.01 32.81 36.84 42.58 38.59 45.77 54.39 57.08 58.58 57.33 58.83 62.39 62.75 63.40 62.43 61.56 69.33 73.14 73.13 72.27 72.19 71.31 68.06 68.06 68.04 67.66 67.39 66.94 66.89 66.66 67.09 67.54 66.97 66.82 66.55 66.42 65.84 65.06 65.51 65.88 65.20 67.36 66.44 67.43 65.48 65.47
43.35 39.62 41.38 36.45 33.58 36.03 38.22 43.55 49.90 56.85 59.43 61.83 60.79 58.60 59.13 61.62 63.15 63.52 63.63 64.54 72.07 72.29 71.94 71.44 70.29 68.98 68.94 68.08 66.46 65.70 65.92 65.72 65.13 66.35 67.70 67.27 67.05 66.76 66.42 66.40 67.06 65.66 66.83 66.93 67.21 65.51 65.04 64.86 64.85
45.20 45.60 38.99 36.29 33.07 31.36 36.59 41.20 42.38 51.17 54.62 60.03 59.32 57.47 59.23 60.71 62.07 60.32 64.96 64.85 65.94 71.93 72.05 71.92 70.78 68.69 68.20 66.96 66.33 64.74 63.66 63.47 64.26 67.30 66.91 66.74 66.47 66.11 65.82 66.59 64.98 64.25 65.06 66.03 65.02 63.53 63.38 63.37 63.68
43.04 40.89 39.85 38.45 36.99 34.83 34.17 39.70 47.93 50.16 53.11 57.53 60.09 58.20 58.79 60.10 60.39 60.86 63.33 65.11 65.82 70.15 70.79 70.40 69.34 67.99 67.11 66.06 64.76 64.41 63.22 62.77 64.27 66.35 67.01 66.48 65.69 64.87 65.24 65.05 64.09 63.31 62.58 62.82 62.14 61.45 61.83 61.92 61.91
43.55 41.24 40.53 37.53 35.62 36.98 38.24 40.47 52.18 52.14 53.63 58.08 59.34 60.88 59.80 61.78 62.54 62.65 64.16 64.56 65.93 69.09 70.26 69.52 68.33 67.48 66.01 64.87 64.47 63.41 63.17 63.89 64.84 65.79 65.42 65.33 64.63 65.42 65.11 64.41 63.72 62.66 62.22 61.31 59.75 59.39 59.94 60.08 60.37
MSLP
1011.09 1011.47 1011.85 1012.11 1012.44 1011.67 1010.59 1009.79 1008.93 1008.85 1008.76 1008.74 1008.85 1009.37 1010.14 1010.75 1011.04 1012.18 1011.84 1011.90 1012.00 1012.47 1012.72 1012.98 1013.30 1013.46 1013.71 1013.91 1014.09 1014.35 1014.54 1014.79 1014.99 1015.20 1015.39 1015.58 1015.69 1015.79 1015.81 1015.84 1015.97 1015.97 1015.98 1016.13 1016.28 1016.50 1016.65 1016.57 1016.76
1011.16 1011.81 1011.99 1011.84 1011.90 1011.27 1010.57 1009.72 1008.97 1008.78 1008.79 1008.88 1009.02 1009.51 1009.96 1010.79 1011.03 1011.71 1012.12 1012.30 1012.29 1012.57 1012.80 1013.08 1013.32 1013.49 1013.66 1013.98 1014.26 1014.48 1014.67 1014.84 1015.08 1015.30 1015.45 1015.66 1015.87 1015.93 1016.01 1015.99 1016.03 1016.08 1016.17 1016.25 1016.38 1016.55 1016.64 1016.78 1017.00
1011.61 1011.67 1011.75 1011.36 1011.17 1010.77 1010.06 1009.50 1008.96 1008.88 1008.67 1008.60 1009.07 1009.30 1010.11 1010.97 1011.37 1011.77 1011.86 1012.40 1012.56 1012.92 1013.02 1013.17 1013.28 1013.43 1013.60 1014.00 1014.38 1014.68 1014.77 1014.90 1015.08 1015.30 1015.48 1015.68 1015.93 1016.02 1016.17 1016.19 1016.15 1016.18 1016.33 1016.46 1016.53 1016.68 1016.93 1017.07 1017.21
1011.58 1011.80 1011.42 1010.87 1010.37 1009.56 1009.09 1009.02 1008.77 1008.82 1008.97 1008.93 1009.23 1009.74 1010.45 1010.74 1011.15 1011.58 1012.13 1012.45 1012.94 1013.21 1013.18 1013.19 1013.26 1013.38 1013.71 1014.04 1014.43 1014.68 1014.84 1015.00 1015.14 1015.32 1015.45 1015.66 1015.83 1015.99 1016.10 1016.28 1016.41 1016.36 1016.41 1016.54 1016.68 1016.84 1017.02 1017.25 1017.45
1011.43 1011.23 1010.74 1010.26 1009.63 1009.13 1008.84 1008.65 1008.62 1008.68 1008.99 1009.17 1009.38 1010.49 1011.03 1011.18 1011.27 1011.79 1012.28 1012.62 1012.84 1013.23 1013.17 1013.17 1013.25 1013.47 1013.75 1014.07 1014.37 1014.71 1014.88 1015.03 1015.16 1015.36 1015.50 1015.66 1015.80 1016.00 1016.12 1016.14 1016.38 1016.52 1016.52 1016.60 1016.91 1016.97 1017.01 1017.25 1017.55
1011.24 1011.03 1010.56 1010.21 1009.35 1008.82 1008.66 1008.37 1008.47 1008.76 1009.11 1009.50 1009.94 1010.54 1011.61 1011.45 1011.48 1012.27 1012.58 1013.00 1013.14 1013.49 1013.42 1013.43 1013.50 1013.63 1013.90 1014.16 1014.43 1014.78 1015.04 1015.14 1015.22 1015.35 1015.52 1015.59 1015.68 1015.85 1016.00 1016.12 1016.33 1016.44 1016.61 1016.70 1016.77 1016.91 1016.99 1017.16 1017.37
1010.62 1010.19 1010.22 1009.57 1009.05 1008.67 1008.36 1008.38 1008.57 1008.88 1009.22 1009.45 1009.56 1010.73 1011.71 1011.94 1011.75 1012.14 1012.86 1013.29 1013.42 1013.58 1013.72 1013.88 1013.85 1013.80 1013.91 1014.15 1014.40 1014.67 1014.87 1015.08 1015.26 1015.35 1015.53 1015.61 1015.68 1015.79 1015.95 1016.19 1016.29 1016.48 1016.48 1016.55 1016.66 1016.74 1016.89 1017.09 1017.29
1009.45 1009.67 1009.51 1009.20 1008.92 1008.73 1008.40 1008.35 1008.73 1008.73 1009.13 1009.34 1009.45 1010.43 1011.65 1011.79 1011.99 1012.50 1013.24 1013.65 1013.87 1013.96 1013.87 1014.02 1014.08 1014.02 1014.06 1014.14 1014.38 1014.53 1014.77 1015.00 1015.17 1015.34 1015.42 1015.57 1015.64 1015.78 1015.92 1016.17 1016.38 1016.41 1016.51 1016.57 1016.57 1016.77 1016.84 1016.99 1017.19
1008.65 1009.11 1008.97 1008.64 1008.47 1008.36 1007.29 1007.77 1008.41 1008.31 1008.83 1009.23 1009.52 1009.70 1010.46 1011.83 1012.38 1012.96 1013.54 1013.98 1014.15 1014.02 1014.14 1014.20 1014.20 1014.41 1014.29 1014.17 1014.28 1014.33 1014.55 1014.81 1015.03 1015.22 1015.29 1015.38 1015.67 1015.69 1015.81 1016.02 1016.21 1016.39 1016.51 1016.56 1016.58 1016.69 1016.75 1016.85 1017.03
1008.32 1008.93 1008.25 1007.75 1007.53 1006.78 1006.46 1007.09 1007.50 1008.17 1008.92 1009.43 1009.67 1010.12 1010.79 1011.73 1012.36 1012.73 1013.28 1013.72 1014.11 1013.92 1013.97 1014.26 1014.24 1014.41 1014.55 1014.42 1014.48 1014.49 1014.61 1014.70 1014.93 1015.21 1015.29 1015.43 1015.74 1015.88 1015.79 1015.87 1016.01 1016.20 1016.43 1016.53 1016.59 1016.65 1016.68 1016.87 1017.23
1007.71 1007.98 1007.39 1007.09 1006.81 1006.28 1006.63 1007.36 1007.44 1007.84 1008.62 1008.48 1009.37 1010.28 1010.94 1011.74 1012.30 1012.58 1013.11 1013.05 1012.97 1013.42 1013.86 1014.04 1014.15 1014.27 1014.46 1014.36 1014.42 1014.51 1014.59 1014.69 1014.84 1015.07 1015.34 1015.46 1015.62 1015.77 1015.93 1015.97 1016.01 1016.19 1016.27 1016.53 1016.54 1016.77 1016.95 1017.04 1017.10
1007.16 1007.09 1007.13 1006.62 1005.89 1006.07 1006.59 1007.12 1007.64 1007.36 1007.38 1008.09 1008.69 1009.42 1010.68 1011.62 1012.17 1012.46 1012.67 1013.00 1013.17 1013.35 1013.41 1013.84 1013.88 1014.16 1014.23 1014.25 1014.27 1014.36 1014.45 1014.45 1014.56 1014.67 1014.83 1015.37 1015.57 1015.70 1015.78 1015.87 1016.00 1016.25 1016.40 1016.65 1016.74 1016.89 1016.94 1017.07 1017.04
1006.42 1006.19 1006.39 1006.05 1006.05 1005.83 1006.31 1006.77 1007.51 1007.52 1007.42 1008.08 1009.03 1009.77 1010.42 1011.13 1011.62 1012.02 1011.98 1012.28 1012.60 1012.86 1012.98 1013.35 1013.66 1013.80 1013.85 1014.18 1014.36 1014.40 1014.27 1014.30 1014.30 1014.57 1014.65 1014.82 1015.22 1015.67 1015.53 1015.72 1016.06 1016.21 1016.44 1016.60 1016.80 1016.98 1016.87 1016.99 1017.13
1005.52 1005.32 1005.52 1005.40 1005.78 1006.00 1006.65 1007.19 1007.43 1007.17 1007.60 1008.47 1009.21 1009.74 1009.99 1010.31 1010.62 1011.30 1011.85 1011.99 1012.11 1012.14 1012.55 1012.86 1013.12 1013.50 1013.70 1014.13 1014.31 1014.32 1014.36 1014.34 1014.44 1014.60 1014.71 1014.87 1015.21 1015.41 1015.44 1015.70 1015.96 1016.20 1016.35 1016.58 1016.68 1016.92 1017.02 1017.09 1016.95
1005.34 1006.03 1005.71 1005.46 1006.07 1006.44 1006.68 1007.33 1006.99 1007.31 1007.62 1008.25 1008.82 1009.43 1009.84 1009.89 1010.10 1010.32 1010.48 1011.25 1011.24 1011.50 1011.89 1012.60 1012.93 1013.42 1013.85 1014.16 1014.25 1014.28 1014.38 1014.26 1014.36 1014.37 1014.16 1014.56 1014.98 1015.11 1015.30 1015.72 1016.04 1016.05 1016.11 1016.39 1016.61 1016.77 1016.94 1016.93 1016.67
1006.32 1006.59 1006.69 1006.41 1006.19 1006.69 1006.82 1007.19 1006.71 1007.44 1007.58 1007.99 1008.48 1009.00 1009.05 1009.19 1009.09 1009.28 1009.67 1010.14 1010.75 1011.23 1011.69 1012.10 1012.62 1013.14 1013.46 1014.11 1014.26 1014.50 1014.43 1014.21 1014.12 1013.92 1014.18 1014.31 1014.59 1014.76 1015.16 1015.53 1015.77 1015.72 1015.88 1016.12 1016.47 1016.74 1016.83 1016.68 1016.64
1007.51 1007.47 1007.16 1006.64 1006.10 1006.59 1007.26 1007.20 1006.74 1007.58 1007.61 1008.03 1008.17 1008.12 1008.41 1008.95 1009.18 1009.07 1009.15 1009.49 1009.94 1010.49 1011.21 1011.94 1012.27 1012.82 1013.42 1013.93 1014.15 1014.24 1014.24 1014.23 1014.17 1014.30 1014.28 1014.37 1014.50 1014.66 1014.88 1015.26 1015.44 1015.45 1015.68 1016.00 1016.20 1016.43 1016.55 1016.49 1016.42
1007.97 1007.48 1006.84 1006.56 1005.95 1006.25 1006.69 1006.74 1007.11 1007.24 1007.52 1007.71 1007.96 1007.79 1007.91 1008.36 1008.53 1008.43 1008.78 1009.08 1009.37 1010.14 1010.87 1011.69 1012.48 1013.10 1013.58 1013.69 1014.20 1014.24 1014.38 1014.41 1014.43 1014.38 1014.35 1014.31 1014.45 1014.63 1014.72 1014.82 1014.97 1015.23 1015.58 1015.74 1015.86 1015.96 1016.09 1016.13 1016.04
1007.71 1007.58 1006.96 1005.48 1005.37 1005.95 1006.21 1006.26 1006.57 1006.51 1007.40 1007.52 1007.57 1007.63 1007.61 1007.68 1007.76 1008.45 1008.48 1008.86 1009.41 1010.14 1010.92 1011.61 1012.56 1013.08 1013.33 1013.78 1014.12 1014.39 1014.53 1014.55 1014.59 1014.37 1014.11 1014.13 1014.05 1014.33 1014.55 1014.80 1014.95 1014.95 1015.24 1015.31 1015.36 1015.47 1015.56 1015.64 1015.65
1007.58 1007.39 1006.53 1005.57 1005.07 1005.83 1005.77 1005.67 1005.87 1006.40 1006.04 1005.90 1006.12 1006.90 1007.34 1007.67 1007.96 1008.27 1008.55 1008.94 1009.32 1010.06 1010.84 1011.23 1011.83 1012.49 1012.83 1013.18 1013.53 1013.68 1014.20 1014.38 1014.27 1014.25 1014.09 1013.94 1014.08 1014.23 1014.62 1014.76 1014.83 1014.89 1015.01 1015.04 1014.97 1015.00 1015.35 1015.53 1015.46
1007.12 1006.99 1006.13 1005.90 1005.04 1004.94 1005.18 1005.58 1005.85 1006.26 1006.25 1006.17 1006.44 1006.47 1007.35 1007.10 1007.78 1007.90 1008.49 1009.04 1009.51 1010.34 1010.71 1010.87 1011.80 1012.33 1012.92 1013.32 1013.34 1013.63 1013.95 1014.13 1014.18 1014.21 1014.22 1013.98 1013.96 1014.09 1014.23 1014.25 1014.62 1014.69 1014.74 1014.82 1014.78 1014.87 1015.11 1015.11 1015.08
1006.58 1005.87 1005.74 1005.90 1006.22 1006.23 1006.14 1006.89 1006.30 1005.89 1006.07 1006.05 1006.04 1006.23 1006.68 1007.11 1007.79 1007.82 1008.23 1009.03 1009.65 1009.93 1010.35 1010.54 1010.59 1011.94 1012.56 1013.03 1013.35 1013.40 1013.67 1014.10 1014.03 1013.98 1014.09 1014.05 1013.74 1013.83 1013.94 1014.08 1014.30 1014.67 1014.74 1014.78 1014.69 1014.62 1014.70 1014.85 1015.07
1005.23 1005.09 1005.56 1006.12 1007.18 1007.58 1007.46 1007.93 1006.75 1006.57 1006.19 1005.72 1005.54 1005.85 1006.43 1006.94 1007.36 1007.47 1007.87 1008.51 1009.26 1009.75 1009.10 1008.67 1009.21 1010.27 1012.19 1012.64 1012.69 1013.19 1013.53 1013.76 1013.81 1013.86 1014.12 1014.24 1014.31 1014.09 1014.18 1014.33 1014.43 1014.70 1014.70 1014.67 1014.68 1014.62 1014.60 1014.59 1014.79
1004.48 1005.45 1006.63 1007.63 1008.59 1009.56 1008.21 1008.37 1007.66 1006.91 1005.72 1005.09 1005.02 1005.18 1006.05 1006.62 1007.04 1007.65 1008.15 1008.97 1009.49 1009.53 1008.27 1008.74 1008.77 1009.95 1012.17 1012.50 1012.45 1012.76 1013.03 1013.38 1013.83 1014.10 1014.26 1014.42 1014.45 1014.65 1014.40 1014.57 1014.55 1014.55 1014.71 1014.76 1014.71 1014.75 1014.66 1014.65 1014.72
1005.02 1006.57 1008.18 1009.99 1010.81 1010.14 1008.91 1008.85 1007.42 1006.10 1005.56 1005.08 1004.82 1005.13 1005.63 1006.40 1007.18 1008.00 1008.39 1008.61 1009.49 1009.69 1009.59 1009.54 1009.17 1011.08 1012.18 1012.68 1012.53 1012.65 1012.88 1013.09 1013.58 1013.88 1014.12 1014.59 1014.77 1014.89 1014.94 1014.79 1014.83 1014.73 1014.53 1014.58 1014.57 1014.61 1014.68 1014.69 1014.64
1005.18 1006.44 1008.13 1009.85 1010.96 1010.08 1008.98 1008.20 1006.43 1006.23 1005.77 1005.17 1005.09 1005.69 1006.45 1007.64 1008.67 1010.02 1010.57 1011.40 1009.71 1009.62 1010.11 1010.33 1010.71 1011.64 1012.08 1012.61 1012.72 1012.69 1013.05 1013.13 1013.31 1013.59 1013.92 1014.46 1014.75 1014.69 1014.85 1014.95 1014.94 1014.75 1014.35 1014.59 1014.62 1014.68 1014.70 1014.72 1014.71
1005.11 1006.23 1007.31 1009.28 1010.79 1010.60 1009.43 1008.12 1006.81 1006.30 1006.57 1006.25 1006.61 1006.69 1007.48 1007.70 1008.18 1009.14 1010.95 1012.15 1011.75 1009.96 1009.54 1010.30 1010.92 1011.48 1011.79 1012.63 1012.92 1013.10 1013.17 1013.51 1013.69 1013.68 1013.75 1014.27 1014.56 1014.63 1014.90 1014.97 1014.87 1014.79 1014.73 1014.76 1014.76 1014.82 1014.70 1014.65 1014.44
1004.10 1005.35 1007.50 1009.29 1010.66 1011.11 1010.03 1009.25 1008.43 1007.86 1007.98 1008.14 1007.96 1007.72 1008.20 1008.20 1008.78 1007.93 1010.75 1011.30 1011.39 1010.20 1009.44 1009.95 1010.96 1011.65 1011.74 1012.68 1013.04 1013.45 1013.61 1013.67 1013.64 1013.57 1013.80 1014.02 1014.34 1014.68 1014.96 1014.94 1015.05 1015.10 1015.14 1015.14 1015.02 1015.03 1015.12 1014.95 1014.93
1004.57 1005.50 1007.08 1008.80 1009.77 1010.64 1010.64 1009.89 1008.94 1008.37 1008.27 1008.53 1009.02 1008.38 1008.24 1008.88 1008.93 1009.97 1010.23 1008.97 1010.57 1010.48 1009.51 1010.41 1011.52 1011.94 1012.00 1012.64 1013.42 1013.92 1013.91 1013.97 1013.85 1013.93 1014.12 1013.86 1014.30 1014.56 1014.67 1015.05 1015.30 1015.38 1015.56 1015.61 1015.61 1015.58 1015.51 1015.42 1015.37
1004.21 1004.96 1006.21 1008.56 1009.96 1010.45 1010.20 1009.38 1009.18 1008.97 1008.69 1008.54 1009.51 1009.31 1009.37 1009.05 1009.12 1009.09 1009.15 1008.35 1009.26 1011.03 1009.93 1010.71 1011.77 1011.94 1012.19 1012.56 1013.61 1014.24 1014.31 1014.06 1014.16 1014.10 1014.37 1014.29 1014.47 1014.42 1014.57 1014.99 1015.33 1015.63 1015.77 1015.89 1015.91 1015.85 1015.97 1015.96 1015.74
Wind_Speed
14 10 4 1 1 2 4 5 2 5 3 4 4 4 5 4 1 3 3 6 12 9 6 9 11 12 12 12 13 13 14 14 14 13 14 13 12 12 12 11 11 11 12 12 9 10 10 12 12
11 12 3 1 2 4 3 2 9 4 3 6 7 4 5 3 5 9 6 8 10 8 6 6 11 11 12 12 12 12 12 14 13 12 12 11 10 10 9 8 9 10 9 11 10 10 10 11 11
12 8 2 4 1 2 3 2 10 5 6 4 3 4 4 2 7 8 9 12 9 6 6 7 13 12 13 13 12 12 12 13 14 12 11 9 9 9 9 8 7 8 9 8 10 9 8 9 10
7 2 3 3 2 2 5 6 6 7 9 9 7 5 5 2 9 7 14 14 10 6 6 10 13 13 12 12 12 12 12 11 12 13 12 11 9 7 7 6 6 7 7 8 8 8 8 7 8
1 2 3 4 4 5 5 9 9 7 5 8 6 4 4 3 12 17 15 12 12 8 6 9 13 12 12 12 12 12 12 12 12 11 10 10 9 7 7 7 6 6 6 6 6 7 8 8 6
2 1 5 4 6 6 3 7 7 8 9 10 7 6 2 8 15 11 10 9 8 7 5 6 12 12 12 12 12 11 11 12 12 12 10 8 8 7 4 6 6 7 7 6 6 6 6 7 7
3 3 2 2 4 4 4 4 6 9 9 4 7 5 3 7 10 12 9 7 8 5 4 3 5 10 14 13 12 12 13 12 12 11 11 10 9 8 7 6 6 8 8 9 8 7 6 6 6
3 3 3 2 3 5 3 3 3 6 2 6 13 6 6 9 12 10 9 6 6 4 4 4 4 5 6 6 13 13 12 12 12 12 12 11 11 9 7 6 4 5 6 6 7 7 7 6 4
3 5 3 4 4 3 7 7 6 2 12 5 5 6 10 14 13 11 10 5 5 5 5 3 4 4 5 5 7 11 13 12 12 11 12 10 3 5 6 6 7 7 5 5 6 8 8 7 7
4 3 3 3 7 7 7 6 11 6 8 2 6 10 18 17 15 14 11 9 7 8 7 6 5 5 4 4 4 4 4 3 3 4 5 4 5 4 5 7 9 9 7 6 5 4 5 5 2
4 6 5 8 8 7 3 4 0 12 4 8 17 15 19 15 14 13 11 14 17 10 7 10 8 5 6 5 3 2 3 3 3 5 5 4 3 3 3 2 3 2 7 1 2 2 2 2 2
3 6 6 6 12 9 5 8 4 9 7 13 18 21 18 15 14 13 13 11 9 10 11 9 8 7 7 4 4 3 3 3 3 5 6 4 3 3 4 3 2 4 2 4 3 3 4 4 4
6 5 9 10 8 8 7 5 4 6 10 15 15 17 18 15 14 11 12 11 8 10 11 10 9 9 8 6 3 3 4 3 2 3 3 3 4 4 3 4 3 3 3 3 4 3 3 2 4
4 6 5 13 15 8 7 3 2 2 14 16 16 14 15 17 17 11 9 11 12 11 11 9 10 8 5 5 4 3 2 3 3 3 3 3 3 4 4 3 3 4 3 3 3 3 2 3 3
5 5 8 7 6 5 5 7 8 5 16 17 18 15 14 15 15 16 16 14 15 12 10 9 9 6 7 5 4 3 3 3 2 3 5 5 5 4 4 4 4 3 4 5 3 3 3 4 3
6 5 4 3 5 3 6 11 8 9 14 16 16 15 17 16 18 15 12 15 13 10 10 8 7 8 6 5 4 3 3 3 3 3 3 5 4 5 5 4 4 4 3 3 3 3 4 4 3
5 4 3 1 9 6 5 7 5 6 12 13 15 17 16 14 11 12 11 13 13 13 11 8 8 8 7 6 5 4 3 1 2 1 2 3 3 4 5 4 4 4 3 3 3 3 3 3 3
5 5 3 6 9 11 12 11 7 9 13 14 13 17 15 15 18 15 11 11 12 11 9 8 5 6 7 3 4 4 3 1 1 3 3 5 4 5 4 3 4 4 3 3 3 4 4 4 3
3 4 8 6 6 6 12 9 11 17 12 12 14 15 14 16 15 10 10 10 10 8 9 10 9 7 6 3 2 2 3 2 2 3 4 4 4 4 5 3 3 4 3 4 4 2 4 2 3
6 7 12 9 6 7 13 8 6 13 23 24 21 16 13 7 7 7 7 9 13 12 10 10 9 9 6 4 3 3 3 2 1 2 3 4 4 4 4 4 3 4 3 4 3 2 1 2 4
5 8 9 10 5 3 2 8 2 5 3 12 8 7 6 11 12 9 8 8 10 10 11 11 7 7 5 3 4 3 3 2 1 1 2 3 5 5 5 4 3 1 3 3 3 3 5 2 1
4 11 16 9 4 5 4 7 6 3 1 7 9 8 10 8 8 7 9 7 11 11 8 10 11 8 5 7 4 5 4 4 3 2 1 1 3 2 4 4 4 2 1 1 2 1 2 2 3
12 7 15 10 3 5 3 4 10 3 5 11 10 8 8 7 10 10 13 11 9 10 11 15 12 11 6 6 7 5 4 3 2 2 3 3 2 4 4 4 5 3 1 1 2 1 1 2 2
3 4 9 6 5 2 8 6 8 4 9 6 7 8 9 12 8 6 6 8 6 8 8 11 3 8 7 6 6 7 7 4 3 3 4 3 3 2 4 3 3 2 2 2 2 1 1 2 2
5 7 2 3 3 7 4 4 11 7 8 9 12 9 10 10 8 7 9 11 10 8 4 8 14 5 5 6 5 5 4 5 4 3 4 3 2 2 3 3 1 0 1 1 2 2 1 1 1
2 7 8 5 3 6 4 4 7 2 8 9 5 6 13 14 15 14 16 15 9 10 8 7 9 6 6 5 5 5 5 4 3 4 6 4 2 4 4 3 3 2 1 1 2 1 2 2 0
2 3 6 8 3 2 4 7 6 6 11 9 13 15 11 13 15 14 15 12 12 9 10 10 8 7 7 6 5 5 4 4 3 2 8 4 4 3 4 5 3 1 2 4 4 3 4 3 4
7 7 3 3 4 4 5 4 6 5 4 5 8 9 7 4 7 17 12 19 11 12 7 10 7 7 7 7 5 4 5 4 3 5 7 6 5 5 5 4 5 3 5 5 5 4 4 5 4
2 2 7 7 5 7 1 8 6 6 4 4 5 6 8 9 5 8 0 5 8 10 9 8 7 7 8 7 4 5 5 4 4 4 3 6 5 6 6 7 5 5 5 4 4 4 4 5 4
2 5 6 7 6 1 5 8 4 7 9 4 4 9 4 10 9 9 5 7 7 7 7 9 6 8 7 7 6 5 5 6 4 5 4 5 4 4 7 7 6 6 5 5 5 5 5 5 5
Wind_Direction
159 154 145 221 32 31 6 0 20 69 10 339 61 72 93 22 101 190 135 136 131 137 141 150 155 151 143 137 134 130 128 122 118 116 117 120 124 124 126 131 137 131 129 128 124 126 128 117 119
150 142 170 331 47 64 329 290 85 53 123 108 79 98 58 41 68 120 111 136 132 133 128 146 156 150 146 144 144 141 136 129 125 122 124 125 125 116 124 123 128 132 136 130 130 139 128 123 129
155 169 164 143 95 135 142 302 123 120 139 119 104 75 61 107 93 137 133 131 124 118 136 160 156 157 153 152 151 151 147 142 137 135 133 132 135 130 122 124 127 131 135 137 136 134 129 131 132
168 238 257 88 338 357 147 174 157 137 87 78 86 57 70 298 146 133 135 137 132 143 148 159 159 160 157 157 159 161 155 150 144 148 145 145 146 144 144 141 138 128 136 142 141 145 138 135 135
51 247 27 48 346 69 114 138 141 134 79 106 109 96 70 61 111 135 144 146 150 158 163 157 156 160 160 163 168 166 158 154 152 153 153 156 156 155 157 154 165 159 139 148 158 151 145 140 138
269 102 41 20 0 98 120 146 131 98 109 104 95 95 5 140 132 143 144 148 149 155 145 158 156 157 160 167 172 168 165 162 162 165 164 168 165 163 171 162 161 166 165 166 166 160 158 155 151
241 77 54 61 71 94 154 125 123 131 133 120 132 100 119 166 146 143 136 144 142 148 143 156 162 170 167 169 174 174 173 171 171 171 171 174 183 176 173 169 175 172 174 179 175 174 176 181 168
128 82 59 48 69 45 54 108 132 132 144 112 134 156 178 183 139 122 118 137 136 155 164 181 189 179 167 176 177 182 181 179 180 179 179 182 182 184 183 175 204 193 188 185 189 188 195 191 196
142 50 342 89 72 237 180 133 169 115 142 192 195 127 146 141 130 122 137 134 155 177 181 210 208 210 191 188 193 190 189 190 192 189 187 186 171 186 198 185 206 211 208 205 199 198 201 196 207
116 101 170 206 170 224 170 130 162 131 177 38 84 87 133 148 155 156 163 173 184 195 191 195 214 203 211 208 218 193 211 197 194 196 209 169 174 200 195 205 217 211 212 209 205 205 221 212 213
180 181 205 172 178 214 168 106 217 136 203 183 154 146 152 160 170 169 182 186 187 197 190 197 201 194 203 219 202 202 204 200 200 212 207 197 177 198 232 213 234 194 205 199 179 78 83 135 175
187 208 189 228 189 184 197 139 187 187 192 161 162 154 155 170 181 187 186 186 184 194 198 196 197 191 209 211 199 211 206 216 204 210 203 176 195 196 200 191 178 157 178 165 172 183 188 200 214
205 200 191 201 207 210 113 190 216 236 147 146 158 153 165 178 191 201 197 184 179 195 201 196 191 197 205 207 188 220 221 238 261 272 268 166 196 172 159 158 148 167 163 179 190 205 201 210 246
271 307 233 189 187 194 159 32 35 291 150 149 160 181 178 184 192 189 191 188 188 197 207 190 197 192 180 198 204 226 265 283 227 214 237 194 199 181 173 147 168 174 175 194 185 199 224 243 260
333 28 358 40 131 164 121 325 228 160 152 158 168 187 197 201 191 199 186 191 188 200 199 192 191 167 183 189 169 197 273 270 208 187 198 220 213 193 162 172 182 203 197 201 208 222 220 254 248
25 39 35 285 142 172 106 246 240 163 161 170 174 191 205 209 203 199 199 186 189 181 190 188 181 173 173 165 151 169 222 232 196 204 208 209 216 177 151 166 185 205 189 199 203 218 247 241 230
11 203 233 278 214 135 170 252 201 165 183 176 184 200 206 212 219 208 201 187 175 183 180 187 170 169 139 151 135 132 135 134 144 161 178 198 245 160 144 173 197 204 194 209 205 215 218 243 228
250 308 241 178 215 188 185 252 149 174 184 186 193 208 202 205 220 208 189 186 173 175 174 174 147 143 135 134 138 101 91 102 185 193 203 189 209 205 170 191 203 192 201 226 221 220 214 218 207
241 226 269 285 172 145 198 223 187 189 197 200 201 210 207 199 209 217 182 178 166 157 156 160 150 163 154 147 122 109 141 202 213 239 221 229 205 206 197 199 215 226 226 242 228 191 208 261 197
231 274 270 287 195 187 189 206 229 190 207 203 198 206 204 164 176 186 191 165 172 172 175 161 168 163 171 147 169 144 152 205 200 208 226 207 225 193 208 226 238 229 208 245 251 184 114 226 189
215 210 260 223 328 308 33 324 350 205 222 226 222 181 208 189 196 179 185 179 168 168 176 171 155 173 167 165 122 96 90 64 22 239 252 233 204 209 206 203 217 238 177 200 220 201 193 218 192
227 218 241 265 31 267 36 281 307 304 266 236 211 181 202 193 200 186 173 179 173 179 177 135 156 193 167 171 154 150 166 158 219 208 167 73 191 184 158 136 121 107 107 207 230 230 213 155 237
236 186 213 235 125 15 324 81 273 344 276 246 226 213 200 181 195 187 191 187 170 168 190 170 176 146 170 174 165 157 162 171 180 150 135 115 101 96 100 126 126 128 130 252 271 276 208 177 180
290 67 39 40 86 69 249 131 286 206 228 253 243 207 187 190 194 196 133 134 140 161 218 71 41 122 164 174 170 166 165 171 158 148 155 154 135 110 119 108 103 126 172 194 208 226 186 168 191
83 64 2 10 14 214 124 70 236 278 276 232 237 219 193 188 180 150 144 153 150 156 163 128 141 197 161 166 180 159 169 148 186 201 171 166 143 126 157 118 137 204 306 281 202 205 211 104 118
128 144 153 209 214 257 201 227 262 317 305 264 279 52 79 86 70 62 32 345 158 155 173 139 162 156 171 153 121 121 133 161 163 138 112 112 159 160 135 140 179 132 85 345 335 84 82 103 104
217 171 186 107 31 44 265 296 341 354 20 62 88 89 94 106 102 97 34 344 283 175 169 165 151 165 138 129 124 135 117 124 124 128 119 136 157 131 155 175 165 112 48 38 62 53 48 34 25
160 163 81 6 130 240 296 279 236 333 6 351 92 104 99 96 100 86 140 259 295 251 161 146 150 159 137 138 149 133 130 135 143 128 133 139 129 135 168 137 94 53 41 37 50 35 20 38 21
14 229 56 112 132 160 202 270 181 235 254 222 180 158 142 92 42 106 77 235 336 269 150 130 144 148 141 141 134 130 145 146 119 108 134 130 143 163 134 120 114 85 70 58 64 55 39 52 29
168 199 137 129 249 104 146 265 109 238 264 215 200 221 145 142 155 158 135 321 261 239 153 147 156 156 149 131 142 144 157 147 141 132 138 141 135 120 115 123 110 100 88 68 67 63 45 53 50